Temperature
18 18 17 17 17 17 16 16 16 16 16 16 16 15 15 15 15 15 15 15 15 15 15 15 15 15 15 15 15 15 14 14 14 14 14 14 14 14 14 14 14 14 14
18 18 17 17 17 17 17 16 16 16 16 16 16 16 15 15 15 15 15 14 14 14 14 14 14 14 14 14 14 14 14 14 14 14 14 14 13 13 14 13 13 13 13
18 18 17 17 17 17 16 16 16 16 16 16 15 15 15 15 15 15 14 14 14 14 14 14 14 14 14 14 14 14 14 14 14 14 14 13 13 13 13 13 13 13 13
18 18 17 17 17 17 16 16 16 16 16 15 15 15 15 15 15 14 14 14 14 14 14 14 14 14 14 14 14 14 14 13 13 13 13 13 13 13 13 13 13 13 13
18 18 17 17 17 16 16 16 16 16 15 15 15 15 15 15 15 14 14 14 14 14 14 14 13 13 13 13 13 13 13 13 13 13 13 13 13 12 12 12 12 12 12
18 18 17 17 17 16 16 16 16 16 15 15 15 15 15 15 14 14 14 14 14 14 13 13 13 13 13 13 13 13 13 13 13 13 13 12 12 12 12 12 12 12 11
18 18 17 17 17 16 16 16 16 16 15 15 15 15 15 15 14 14 14 13 13 13 13 13 13 13 13 13 13 13 13 12 12 12 12 12 12 12 12 12 12 11 11
18 17 17 16 16 16 16 16 16 15 15 15 15 15 15 14 14 14 13 13 13 13 13 13 13 12 12 12 12 12 12 12 12 12 12 12 12 12 12 11 11 11 11
17 17 17 16 16 16 16 16 15 15 15 15 15 14 14 14 14 13 13 13 13 13 12 12 12 12 12 12 12 12 12 12 12 12 12 12 12 12 11 11 11 11 11
17 17 17 16 16 16 16 16 15 15 15 15 14 14 14 14 14 13 13 13 13 12 12 12 12 12 12 12 12 12 12 12 12 12 12 11 11 11 11 11 11 11 10
17 16 16 16 16 16 16 15 15 15 15 14 14 14 14 14 13 13 13 13 12 12 12 12 12 12 11 11 11 11 11 11 11 11 11 11 11 11 11 11 11 10 10
16 16 16 16 15 15 15 15 15 15 14 14 14 14 14 13 13 13 13 13 12 12 12 12 12 12 11 11 11 11 11 11 11 11 11 11 10 10 10 10 10 10 10
16 16 16 15 15 15 15 15 15 14 14 14 14 13 13 13 13 13 13 12 12 12 12 12 12 11 11 11 11 11 10 10 10 10 10 10 10 10 10 10 10 10 10
15 15 15 15 15 15 15 15 14 14 14 14 13 13 13 13 13 13 12 12 12 12 12 11 11 11 11 11 11 10 10 10 10 10 10 10 10 10 10 10 10 10 9
15 15 15 15 15 15 15 14 14 14 14 13 13 13 13 13 13 12 12 12 12 12 11 11 11 11 11 11 10 10 10 10 10 10 10 10 10 9 9 9 9 9 9
15 15 15 15 15 14 14 14 14 13 13 13 13 13 13 12 12 12 12 12 11 11 11 11 11 11 10 10 10 10 10 10 10 9 9 9 9 9 9 9 9 9 9
15 15 15 15 15 14 14 14 13 13 13 13 12 12 12 12 12 12 12 11 11 11 11 11 11 10 10 10 10 10 10 9 9 9 9 9 9 9 9 9 9 9 9
15 15 14 14 14 14 13 13 13 13 13 12 12 12 12 12 12 12 11 11 11 11 11 11 11 10 10 10 10 10 9 9 9 9 9 9 9 9 9 8 8 8 8
14 14 14 14 14 13 13 13 13 12 12 12 12 12 12 11 11 11 11 11 11 11 11 11 10 10 10 10 10 9 9 9 9 9 9 9 8 8 8 8 8 8 8
14 14 14 13 13 13 13 12 12 12 12 12 12 12 11 11 11 11 11 11 11 11 11 10 10 10 10 10 10 9 9 9 8 8 8 8 8 8 8 8 8 8 8
13 13 13 13 13 12 12 12 12 12 12 12 12 11 11 11 11 11 11 11 11 10 10 10 10 10 10 9 9 9 9 8 8 8 8 8 8 8 8 8 8 7 7
13 13 13 13 13 12 12 12 12 11 11 11 11 11 11 11 11 11 11 11 10 10 10 10 10 10 9 9 9 9 8 8 8 8 8 8 8 8 8 7 7 7 7
13 13 13 12 12 12 12 12 11 11 11 11 11 11 10 10 10 10 10 10 10 10 10 10 10 9 9 9 9 8 8 8 8 8 8 8 7 7 7 7 7 7 7
13 13 12 12 12 12 11 11 11 11 11 11 10 10 10 10 10 10 10 10 10 10 10 9 9 9 9 9 8 8 8 8 8 8 8 7 7 7 7 7 7 7 7
12 12 12 12 12 11 11 11 11 11 11 10 10 10 10 10 10 10 10 9 9 9 9 9 9 9 8 8 8 8 8 8 8 7 7 7 7 7 7 7 7 7 6
12 12 12 12 11 11 11 11 11 10 10 10 10 10 10 9 9 9 9 9 9 9 9 9 8 8 8 8 8 8 8 8 7 7 7 7 7 7 7 6 6 6 6
Wind_Speed
3 2 2 2 1 1 1 1 1 1 1 0 0 0 0 1 1 1 1 1 1 1 1 0 1 0 1 1 1 2 2 2 2 1 0 0 0 1 2 2 3 3 4
3 3 2 1 1 1 1 1 1 1 1 1 0 0 0 1 1 1 1 1 0 0 1 1 1 1 1 1 1 1 2 2 3 2 1 0 0 1 1 2 2 3 3
4 3 2 1 1 1 2 1 1 1 1 0 0 0 1 1 1 1 0 0 0 0 0 0 0 1 1 0 1 1 1 1 2 2 1 1 0 1 2 2 2 2 2
4 3 2 2 2 2 2 1 1 1 0 0 0 0 0 1 1 0 1 0 0 1 0 0 0 1 1 1 1 1 1 1 2 2 2 1 1 1 1 1 1 1 2
4 3 3 3 2 2 1 1 1 1 1 0 1 1 0 1 0 1 1 1 0 1 1 1 0 1 1 1 1 1 2 2 2 2 2 1 1 1 1 1 2 1 1
4 4 3 2 2 2 2 1 1 1 0 1 1 1 0 0 1 1 2 1 1 1 1 1 1 1 1 1 1 2 3 3 3 2 2 2 2 2 1 2 2 2 1
4 3 3 3 2 2 2 1 1 2 1 1 1 1 0 1 1 2 2 2 1 0 0 1 1 1 2 1 1 1 1 1 3 4 3 3 3 3 3 2 2 2 2
4 3 3 3 3 2 1 2 2 1 1 1 1 1 1 2 1 1 2 2 1 0 0 0 0 1 1 1 1 1 1 1 1 2 3 3 3 3 4 3 3 2 1
4 4 4 3 3 2 2 2 2 1 1 1 1 1 1 2 2 2 2 1 1 0 1 0 0 1 2 1 1 0 1 2 2 1 2 2 2 3 4 4 3 3 1
4 4 4 3 3 3 3 2 1 2 2 1 1 1 1 2 2 1 3 2 1 1 1 1 1 1 2 0 1 1 1 2 2 2 2 2 1 1 2 3 4 4 2
2 2 2 2 3 3 2 1 1 1 1 0 1 1 1 2 2 1 3 2 2 2 2 2 1 1 1 1 2 2 2 1 1 0 1 1 1 0 0 1 3 4 4
2 2 2 1 2 2 2 1 1 1 1 0 0 2 2 2 2 2 2 3 4 3 3 3 2 2 2 2 2 2 1 1 0 0 0 0 1 1 1 1 2 3 3
2 2 2 1 1 1 2 1 1 1 1 1 1 2 2 2 2 2 2 3 4 3 3 3 3 2 1 1 1 1 1 1 1 1 1 2 2 2 1 0 1 1 2
3 2 2 2 1 1 1 2 2 2 2 2 2 3 3 2 2 2 2 2 2 2 2 2 1 1 1 1 1 1 1 1 2 2 2 2 1 1 1 1 1 1 1
3 2 1 2 2 2 1 2 3 3 4 4 4 3 3 4 4 4 2 2 2 2 1 0 0 0 1 1 1 1 1 1 1 2 2 1 1 1 2 1 2 2 2
3 2 2 2 2 2 1 1 1 2 3 4 5 4 4 5 5 4 4 3 2 3 2 1 2 2 2 3 2 2 2 2 2 2 2 2 2 2 2 2 2 2 3
4 3 2 2 2 2 2 2 2 2 2 1 3 4 4 4 4 3 3 2 1 3 2 3 3 3 4 3 3 3 3 3 3 3 3 3 3 3 3 3 3 3 4
3 3 2 2 3 2 2 2 2 2 2 2 3 4 4 4 4 3 2 2 1 2 3 4 4 4 4 4 4 4 4 3 3 3 4 4 4 4 4 4 4 4 4
2 2 2 2 2 2 2 2 1 2 2 2 2 2 3 2 2 1 2 2 2 3 3 4 4 4 4 5 5 4 4 4 4 4 4 4 4 4 5 5 5 6 5
2 3 2 2 2 1 1 1 1 2 2 2 2 2 1 1 1 1 1 2 2 3 3 4 4 4 4 4 4 4 4 4 4 4 4 4 4 4 5 6 6 5 5
2 3 3 2 2 2 2 2 2 2 3 3 4 3 2 2 3 3 3 3 3 4 4 4 4 4 4 3 3 4 4 4 4 4 4 4 4 5 5 5 6 6 6
2 2 2 2 2 2 2 2 2 2 3 3 4 3 2 2 3 3 3 4 4 4 4 4 4 4 3 3 3 3 4 4 4 4 4 5 5 5 5 5 5 5 5
2 2 2 2 1 2 1 1 2 2 3 3 3 2 2 2 3 3 4 4 3 3 3 3 3 3 3 4 4 4 4 5 4 5 5 5 5 5 5 5 6 6 6
2 2 2 2 1 1 2 2 2 2 2 2 2 2 2 3 4 4 4 3 3 3 3 3 3 4 5 4 4 4 4 5 5 5 6 6 6 5 5 5 6 6 6
2 2 2 2 2 2 2 2 2 2 2 2 2 3 3 3 4 4 3 3 3 3 3 3 3 4 5 6 5 5 5 6 6 6 5 5 6 6 6 6 5 5 5
2 1 1 1 2 2 2 2 2 2 2 2 2 3 3 3 3 3 3 3 3 3 4 4 4 4 5 5 5 5 5 5 5 5 4 4 4 4 5 5 6 5 5
Wind_Direction
164 175 164 165 174 162 175 226 239 245 252 292 269 326 4 20 50 64 10 40 66 26 13 19 272 117 99 107 127 138 149 156 189 247 219 20 98 75 66 81 112 124 130
169 165 169 165 150 156 217 249 234 236 249 245 240 57 1 28 52 64 357 52 89 19 359 12 337 70 71 88 116 143 164 171 174 201 196 140 147 128 93 88 86 106 116
161 159 161 172 182 209 234 248 235 226 241 256 124 75 6 23 27 36 82 46 35 22 332 262 345 83 68 78 120 147 168 166 162 168 193 178 184 133 92 84 82 72 95
155 161 181 210 217 224 228 232 228 206 183 209 200 151 84 67 55 65 98 58 22 14 360 350 175 163 192 189 162 180 157 136 132 145 153 146 156 144 129 122 100 71 77
160 178 209 216 205 200 207 225 228 197 208 196 108 73 63 98 50 130 139 120 81 36 27 13 15 67 93 135 147 172 159 155 153 148 152 136 140 150 184 168 157 120 71
168 189 200 192 190 202 212 204 206 244 223 121 132 140 116 30 61 131 138 146 119 93 26 4 10 22 21 57 99 152 167 169 178 171 176 181 202 198 180 166 158 147 171
169 182 188 186 197 218 225 216 230 235 213 210 205 177 221 269 202 189 162 150 134 102 32 9 14 19 30 32 45 60 85 168 181 183 191 208 206 200 175 173 170 174 195
170 185 194 189 208 220 206 219 239 237 232 244 241 238 252 287 256 206 167 145 128 110 320 253 333 344 0 54 73 36 2 338 244 207 204 211 208 202 191 184 176 146 121
188 202 205 197 203 207 215 230 228 217 248 265 250 238 249 283 278 195 152 144 141 303 316 311 223 301 329 76 107 56 337 332 9 88 159 174 177 180 174 158 161 158 165
215 217 206 197 199 207 218 225 223 211 232 256 279 264 245 267 276 192 161 161 192 268 301 310 287 296 320 198 175 197 277 297 342 28 44 54 97 129 153 179 179 177 173
212 217 198 198 206 204 204 204 200 205 202 232 294 299 275 266 280 242 176 181 213 239 262 276 281 285 291 216 189 209 242 263 314 31 38 20 34 91 180 196 195 192 191
150 174 185 193 212 190 165 184 173 159 168 201 302 315 311 298 275 272 237 216 209 217 247 259 260 257 249 229 212 233 224 165 166 115 107 308 279 259 246 224 205 202 213
150 184 194 183 191 169 170 190 196 171 195 238 248 275 296 309 306 293 269 242 223 222 243 253 261 251 232 244 263 246 181 169 182 198 229 246 243 242 244 249 235 227 237
174 201 193 188 202 186 186 193 200 208 218 228 238 252 273 289 295 307 300 271 247 235 250 279 277 231 231 277 282 246 200 195 201 222 246 260 261 242 233 234 236 249 257
186 199 195 188 188 192 208 219 219 224 215 217 227 227 233 261 264 250 240 249 238 224 196 159 15 325 290 288 288 279 247 209 217 230 234 257 270 265 264 255 230 224 236
186 198 204 203 197 199 211 285 280 242 250 224 221 221 236 245 256 250 246 249 239 178 159 225 248 251 256 265 269 272 260 249 241 234 236 240 248 257 262 258 241 233 245
193 201 204 200 197 204 214 226 280 318 326 271 253 249 254 267 267 261 259 248 215 167 198 240 248 254 257 259 258 256 256 255 244 237 242 244 246 249 253 256 249 247 252
191 200 198 202 204 209 214 218 218 239 283 298 291 276 280 281 276 267 231 144 204 203 234 245 249 251 253 252 253 254 255 253 247 242 242 244 242 244 250 254 252 251 254
193 203 198 198 205 204 201 206 212 232 252 278 310 316 315 305 303 270 164 194 238 248 249 255 255 255 255 254 256 255 252 251 252 247 247 246 243 242 248 252 254 251 250
212 215 189 185 202 206 195 200 221 246 263 271 274 280 314 345 302 279 230 239 247 252 254 259 262 258 256 257 258 255 258 260 257 251 251 246 242 240 246 250 250 251 251
211 213 202 194 207 207 204 212 219 236 255 267 271 264 221 238 261 265 259 250 249 256 259 260 262 263 258 255 253 253 256 260 259 258 257 253 249 248 250 248 246 248 252
199 202 203 210 213 208 213 219 221 240 256 271 286 289 238 243 262 267 266 264 262 257 258 259 261 258 252 247 246 251 255 260 263 263 264 260 255 253 250 245 245 249 249
191 196 204 214 212 214 224 223 231 243 256 268 277 288 285 269 266 265 269 272 269 265 265 262 265 265 260 251 246 244 251 256 259 259 259 261 260 255 250 247 246 250 247
188 193 204 212 216 225 233 240 241 255 269 279 284 280 271 269 272 273 276 282 280 278 277 270 269 272 270 266 259 256 259 266 267 260 259 260 259 257 250 246 245 244 243
185 194 206 214 224 232 240 245 249 256 267 270 274 276 275 272 274 281 288 292 293 285 282 275 273 274 273 268 264 263 267 272 271 268 259 255 255 254 253 249 246 242 241
184 199 221 232 241 238 234 239 249 256 261 268 269 273 277 276 277 283 288 291 293 290 286 278 274 274 277 274 278 282 273 270 270 271 259 252 254 257 258 255 250 241 241
Height
1515 1516 1517 1517 1517 1517 1517 1517 1517 1517 1516 1516 1515 1514 1513 1513 1512 1512 1511 1511 1510 1510 1509 1509 1508 1508 1508 1508 1508 1508 1509 1510 1509 1510 1511 1511 1511 1511 1511 1512 1513 1513 1515
1514 1515 1515 1516 1516 1516 1516 1516 1516 1516 1515 1515 1514 1513 1512 1512 1511 1510 1510 1510 1509 1508 1508 1508 1507 1507 1506 1507 1507 1507 1507 1507 1508 1508 1508 1509 1509 1509 1509 1509 1510 1512 1513
1512 1513 1514 1514 1514 1514 1514 1514 1514 1514 1514 1513 1512 1512 1511 1511 1510 1510 1509 1509 1508 1507 1507 1506 1506 1505 1505 1505 1505 1505 1505 1506 1506 1506 1506 1507 1507 1508 1507 1508 1509 1510 1511
1511 1512 1512 1513 1513 1513 1513 1513 1512 1512 1512 1511 1511 1511 1510 1510 1509 1508 1508 1507 1506 1506 1505 1505 1505 1504 1504 1504 1504 1504 1504 1504 1504 1504 1504 1505 1505 1506 1506 1506 1507 1508 1508
1509 1510 1511 1511 1512 1512 1511 1511 1511 1511 1510 1510 1510 1509 1509 1508 1508 1507 1506 1506 1505 1505 1504 1504 1503 1503 1503 1502 1502 1502 1502 1502 1502 1502 1502 1502 1503 1503 1504 1504 1505 1506 1506
1508 1509 1509 1510 1510 1510 1510 1509 1509 1509 1509 1509 1508 1508 1507 1507 1506 1505 1505 1504 1504 1503 1503 1502 1502 1501 1501 1501 1500 1501 1501 1501 1500 1500 1500 1500 1501 1502 1502 1502 1503 1503 1504
1506 1507 1507 1508 1508 1508 1508 1508 1508 1508 1508 1507 1507 1506 1506 1505 1504 1504 1503 1503 1502 1502 1501 1501 1500 1500 1500 1500 1499 1499 1499 1499 1499 1499 1498 1499 1499 1499 1500 1500 1501 1502 1502
1505 1505 1506 1506 1506 1506 1506 1506 1506 1506 1506 1505 1505 1504 1504 1503 1503 1502 1502 1502 1501 1500 1500 1499 1499 1498 1498 1498 1498 1498 1497 1497 1497 1496 1497 1497 1498 1498 1498 1499 1499 1500 1501
1503 1503 1504 1504 1504 1504 1504 1504 1504 1504 1503 1503 1503 1502 1502 1501 1501 1501 1500 1500 1499 1499 1498 1498 1497 1497 1497 1497 1496 1496 1496 1496 1496 1495 1495 1496 1496 1496 1497 1497 1497 1498 1498
1501 1501 1502 1502 1502 1502 1502 1502 1502 1502 1501 1501 1501 1500 1500 1499 1499 1499 1499 1498 1497 1497 1497 1496 1496 1496 1496 1495 1494 1494 1493 1494 1494 1494 1493 1494 1494 1494 1495 1495 1495 1496 1496
1500 1501 1501 1500 1501 1501 1500 1500 1500 1500 1500 1499 1499 1499 1498 1498 1497 1497 1497 1496 1496 1495 1495 1494 1494 1494 1493 1493 1492 1492 1491 1492 1491 1491 1491 1491 1491 1492 1492 1493 1493 1494 1494
1498 1499 1498 1499 1499 1499 1498 1498 1498 1498 1498 1497 1497 1497 1496 1496 1495 1495 1495 1494 1494 1494 1493 1493 1492 1492 1491 1491 1490 1490 1490 1490 1489 1489 1489 1489 1489 1489 1490 1490 1491 1491 1492
1495 1496 1497 1497 1497 1497 1496 1496 1496 1496 1495 1495 1495 1494 1494 1494 1493 1493 1493 1492 1492 1491 1491 1490 1490 1489 1489 1488 1488 1487 1487 1487 1487 1487 1486 1487 1487 1487 1487 1488 1488 1488 1489
1494 1494 1494 1494 1495 1494 1494 1494 1494 1493 1493 1493 1493 1492 1492 1492 1491 1491 1491 1490 1490 1489 1489 1488 1487 1487 1486 1486 1485 1485 1485 1485 1485 1485 1484 1485 1485 1485 1485 1485 1485 1485 1485
1491 1492 1492 1492 1492 1491 1491 1491 1491 1491 1491 1490 1490 1490 1490 1489 1489 1489 1488 1488 1487 1487 1486 1486 1485 1484 1484 1483 1483 1482 1482 1482 1482 1482 1482 1482 1482 1482 1482 1482 1482 1482 1481
1489 1489 1489 1489 1489 1489 1488 1488 1488 1488 1488 1488 1488 1488 1487 1487 1487 1487 1486 1486 1485 1485 1484 1483 1482 1482 1481 1480 1480 1480 1479 1479 1479 1479 1479 1479 1479 1478 1478 1478 1478 1478 1478
1487 1487 1487 1486 1486 1486 1485 1485 1485 1485 1485 1485 1485 1485 1485 1484 1484 1484 1483 1483 1483 1482 1481 1480 1480 1479 1478 1478 1477 1477 1476 1476 1476 1476 1475 1475 1475 1475 1475 1474 1474 1474 1474
1485 1485 1484 1484 1484 1484 1483 1483 1483 1482 1482 1482 1482 1482 1482 1482 1481 1481 1480 1480 1479 1479 1478 1478 1477 1476 1475 1475 1474 1474 1473 1473 1472 1472 1472 1472 1471 1471 1470 1470 1470 1470 1470
1482 1482 1482 1482 1482 1481 1481 1481 1481 1481 1480 1479 1479 1479 1479 1479 1478 1478 1477 1476 1476 1475 1475 1474 1474 1473 1472 1471 1471 1470 1469 1469 1468 1468 1468 1467 1467 1466 1466 1466 1466 1465 1465
1480 1481 1480 1480 1480 1479 1479 1479 1478 1479 1478 1477 1477 1476 1476 1475 1475 1474 1474 1473 1472 1472 1471 1471 1470 1470 1469 1468 1467 1466 1465 1465 1464 1464 1463 1463 1462 1462 1461 1461 1461 1460 1460
1479 1478 1478 1478 1478 1477 1476 1476 1476 1475 1475 1475 1475 1474 1473 1472 1472 1472 1471 1470 1469 1469 1468 1467 1467 1466 1465 1464 1463 1462 1462 1461 1460 1459 1458 1458 1457 1457 1456 1456 1456 1455 1455
1476 1476 1476 1476 1475 1474 1474 1473 1473 1473 1473 1472 1472 1471 1470 1469 1469 1468 1468 1467 1466 1466 1465 1464 1463 1462 1461 1461 1460 1459 1458 1457 1455 1454 1454 1453 1452 1452 1451 1451 1450 1450 1450
1474 1473 1473 1473 1472 1472 1471 1471 1471 1470 1470 1469 1469 1468 1467 1466 1466 1465 1464 1463 1463 1462 1461 1460 1459 1458 1458 1457 1456 1455 1454 1452 1451 1450 1449 1448 1448 1447 1446 1446 1445 1445 1445
1471 1471 1471 1470 1470 1469 1469 1469 1468 1468 1467 1466 1466 1465 1464 1464 1463 1462 1461 1460 1459 1458 1457 1456 1455 1454 1454 1453 1452 1451 1450 1449 1447 1446 1445 1444 1443 1442 1442 1441 1440 1440 1440
1468 1468 1468 1468 1467 1467 1466 1466 1465 1465 1464 1463 1463 1462 1462 1461 1460 1459 1457 1456 1455 1454 1453 1453 1452 1450 1450 1449 1448 1446 1445 1444 1443 1442 1440 1440 1439 1438 1437 1436 1435 1435 1435
1466 1466 1466 1465 1465 1464 1464 1463 1463 1462 1461 1461 1460 1459 1458 1457 1456 1455 1454 1453 1452 1451 1450 1449 1448 1447 1446 1444 1443 1442 1441 1439 1438 1437 1436 1435 1434 1433 1432 1431 1431 1430 1430